Year,Month,Day,Hour,Minute,Value (Times are PST for temperature in C)
2008,08,03,00,00,12.80
2008,08,03,00,01,12.80
2008,08,03,00,02,12.90
2008,08,03,00,03,12.90
2008,08,03,00,04,12.90
2008,08,03,00,05,12.90
2008,08,03,00,06,12.80
2008,08,03,00,07,12.80
2008,08,03,00,08,12.80
2008,08,03,00,09,12.80
2008,08,03,00,10,12.70
2008,08,03,00,11,12.70
2008,08,03,00,12,12.60
2008,08,03,00,13,12.60
2008,08,03,00,14,12.60
2008,08,03,00,15,12.50
2008,08,03,00,16,12.50
2008,08,03,00,17,12.50
2008,08,03,00,18,12.50
2008,08,03,00,19,12.50
2008,08,03,00,20,12.50
2008,08,03,00,21,12.50
2008,08,03,00,22,12.50
2008,08,03,00,23,12.50
2008,08,03,00,24,12.50
2008,08,03,00,25,12.50
2008,08,03,00,26,12.40
2008,08,03,00,27,12.30
2008,08,03,00,28,12.30
2008,08,03,00,29,12.30
2008,08,03,00,30,12.30
2008,08,03,00,31,12.30
2008,08,03,00,32,12.30
2008,08,03,00,33,12.30
2008,08,03,00,34,12.30
2008,08,03,00,35,12.30
2008,08,03,00,36,12.30
2008,08,03,00,37,12.20
2008,08,03,00,38,12.20
2008,08,03,00,39,12.20
2008,08,03,00,40,12.20
2008,08,03,00,41,12.30
2008,08,03,00,42,12.30
2008,08,03,00,43,12.40
2008,08,03,00,44,12.50
2008,08,03,00,45,12.60
2008,08,03,00,46,12.60
2008,08,03,00,47,12.70
2008,08,03,00,48,12.80
2008,08,03,00,49,12.90
2008,08,03,00,50,13.00
2008,08,03,00,51,13.00
2008,08,03,00,52,13.10
2008,08,03,00,53,13.10
2008,08,03,00,54,13.10
2008,08,03,00,55,13.10
2008,08,03,00,56,13.20
2008,08,03,00,57,13.20
2008,08,03,00,58,13.20
2008,08,03,00,59,13.20
2008,08,03,01,00,13.20
2008,08,03,01,01,13.20
2008,08,03,01,02,13.20
2008,08,03,01,03,13.20
2008,08,03,01,04,13.20
2008,08,03,01,05,13.10
2008,08,03,01,06,13.10
2008,08,03,01,07,13.10
2008,08,03,01,08,13.10
2008,08,03,01,09,13.10
2008,08,03,01,10,13.10
2008,08,03,01,11,13.10
2008,08,03,01,12,13.10
2008,08,03,01,13,13.10
2008,08,03,01,14,13.10
2008,08,03,01,15,13.10
2008,08,03,01,16,13.10
2008,08,03,01,17,13.10
2008,08,03,01,18,13.20
2008,08,03,01,19,13.20
2008,08,03,01,20,13.20
2008,08,03,01,21,13.20
2008,08,03,01,22,13.20
2008,08,03,01,23,13.20
2008,08,03,01,24,13.20
2008,08,03,01,25,13.20
2008,08,03,01,26,13.30
2008,08,03,01,27,13.30
2008,08,03,01,28,13.30
2008,08,03,01,29,13.30
2008,08,03,01,30,13.30
2008,08,03,01,31,13.30
2008,08,03,01,32,13.30
2008,08,03,01,33,13.30
2008,08,03,01,34,13.30
2008,08,03,01,35,13.30
2008,08,03,01,36,13.30
2008,08,03,01,37,13.30
2008,08,03,01,38,13.30
2008,08,03,01,39,13.30
2008,08,03,01,40,13.30
2008,08,03,01,41,13.30
2008,08,03,01,42,13.30
2008,08,03,01,43,13.30
2008,08,03,01,44,13.30
2008,08,03,01,45,13.30
2008,08,03,01,46,13.30
2008,08,03,01,47,13.30
2008,08,03,01,48,13.30
2008,08,03,01,49,13.30
2008,08,03,01,50,13.20
2008,08,03,01,51,13.20
2008,08,03,01,52,13.20
2008,08,03,01,53,13.20
2008,08,03,01,54,13.20
2008,08,03,01,55,13.20
2008,08,03,01,56,13.20
2008,08,03,01,57,13.20
2008,08,03,01,58,13.20
2008,08,03,01,59,13.20
2008,08,03,02,00,13.20
2008,08,03,02,01,13.20
2008,08,03,02,02,13.20
2008,08,03,02,03,13.20
2008,08,03,02,04,13.20
2008,08,03,02,05,13.10
2008,08,03,02,06,13.10
2008,08,03,02,07,13.10
2008,08,03,02,08,13.10
2008,08,03,02,09,13.00
2008,08,03,02,10,13.00
2008,08,03,02,11,13.10
2008,08,03,02,12,13.10
2008,08,03,02,13,13.10
2008,08,03,02,14,13.10
2008,08,03,02,15,13.10
2008,08,03,02,16,13.00
2008,08,03,02,17,13.00
2008,08,03,02,18,13.00
2008,08,03,02,19,13.00
2008,08,03,02,20,13.00
2008,08,03,02,21,12.90
2008,08,03,02,22,12.90
2008,08,03,02,23,12.90
2008,08,03,02,24,12.90
2008,08,03,02,25,12.80
2008,08,03,02,26,12.80
2008,08,03,02,27,12.80
2008,08,03,02,28,12.70
2008,08,03,02,29,12.70
2008,08,03,02,30,12.70
2008,08,03,02,31,12.70
2008,08,03,02,32,12.70
2008,08,03,02,33,12.70
2008,08,03,02,34,12.70
2008,08,03,02,35,12.70
2008,08,03,02,36,12.70
2008,08,03,02,37,12.60
2008,08,03,02,38,12.60
2008,08,03,02,39,12.50
2008,08,03,02,40,12.50
2008,08,03,02,41,12.50
2008,08,03,02,42,12.40
2008,08,03,02,43,12.40
2008,08,03,02,44,12.30
2008,08,03,02,45,12.30
2008,08,03,02,46,12.30
2008,08,03,02,47,12.30
2008,08,03,02,48,12.20
2008,08,03,02,49,12.10
2008,08,03,02,50,12.10
2008,08,03,02,51,12.00
2008,08,03,02,52,12.00
2008,08,03,02,53,12.10
2008,08,03,02,54,12.10
2008,08,03,02,55,12.10
2008,08,03,02,56,12.10
2008,08,03,02,57,12.10
2008,08,03,02,58,12.20
2008,08,03,02,59,12.30
2008,08,03,03,00,12.30
2008,08,03,03,01,12.30
2008,08,03,03,02,12.40
2008,08,03,03,03,12.40
2008,08,03,03,04,12.40
2008,08,03,03,05,12.40
2008,08,03,03,06,12.50
2008,08,03,03,07,12.50
2008,08,03,03,08,12.50
2008,08,03,03,09,12.50
2008,08,03,03,10,12.50
2008,08,03,03,11,12.50
2008,08,03,03,12,12.50
2008,08,03,03,13,12.40
2008,08,03,03,14,12.50
2008,08,03,03,15,12.50
2008,08,03,03,16,12.50
2008,08,03,03,17,12.50
2008,08,03,03,18,12.50
2008,08,03,03,19,12.60
2008,08,03,03,20,12.60
2008,08,03,03,21,12.60
2008,08,03,03,22,12.70
2008,08,03,03,23,12.70
2008,08,03,03,24,12.80
2008,08,03,03,25,12.80
2008,08,03,03,26,12.80
2008,08,03,03,27,12.80
2008,08,03,03,28,12.80
2008,08,03,03,29,12.80
2008,08,03,03,30,12.80
2008,08,03,03,31,12.80
2008,08,03,03,32,12.80
2008,08,03,03,33,12.80
2008,08,03,03,34,12.90
2008,08,03,03,35,12.90
2008,08,03,03,36,12.90
2008,08,03,03,37,12.90
2008,08,03,03,38,12.80
2008,08,03,03,39,12.80
2008,08,03,03,40,12.80
2008,08,03,03,41,12.80
2008,08,03,03,42,12.80
2008,08,03,03,43,12.80
2008,08,03,03,44,12.80
2008,08,03,03,45,12.90
2008,08,03,03,46,12.90
2008,08,03,03,47,12.90
2008,08,03,03,48,12.90
2008,08,03,03,49,12.90
2008,08,03,03,50,12.90
2008,08,03,03,51,12.90
2008,08,03,03,52,12.90
2008,08,03,03,53,13.00
2008,08,03,03,54,13.00
2008,08,03,03,55,12.90
2008,08,03,03,56,12.90
2008,08,03,03,57,12.90
2008,08,03,03,58,12.90
2008,08,03,03,59,12.90
2008,08,03,04,00,12.90
2008,08,03,04,01,12.90
2008,08,03,04,02,12.90
2008,08,03,04,03,12.90
2008,08,03,04,04,12.80
2008,08,03,04,05,12.80
2008,08,03,04,06,12.80
2008,08,03,04,07,12.80
2008,08,03,04,08,12.80
2008,08,03,04,09,12.80
2008,08,03,04,10,12.80
2008,08,03,04,11,12.80
2008,08,03,04,12,12.80
2008,08,03,04,13,12.80
2008,08,03,04,14,12.80
2008,08,03,04,15,12.80
2008,08,03,04,16,12.90
2008,08,03,04,17,12.90
2008,08,03,04,18,12.90
2008,08,03,04,19,12.90
2008,08,03,04,20,13.00
2008,08,03,04,21,13.00
2008,08,03,04,22,13.10
2008,08,03,04,23,13.10
2008,08,03,04,24,13.10
2008,08,03,04,25,13.20
2008,08,03,04,26,13.20
2008,08,03,04,27,13.20
2008,08,03,04,28,13.20
2008,08,03,04,29,13.20
2008,08,03,04,30,13.20
2008,08,03,04,31,13.10
2008,08,03,04,32,13.10
2008,08,03,04,33,13.10
2008,08,03,04,34,13.10
2008,08,03,04,35,13.00
2008,08,03,04,36,13.00
2008,08,03,04,37,13.00
2008,08,03,04,38,13.00
2008,08,03,04,39,13.00
2008,08,03,04,40,13.00
2008,08,03,04,41,13.00
2008,08,03,04,42,13.10
2008,08,03,04,43,13.10
2008,08,03,04,44,13.10
2008,08,03,04,45,13.10
2008,08,03,04,46,13.20
2008,08,03,04,47,13.20
2008,08,03,04,48,13.20
2008,08,03,04,49,13.10
2008,08,03,04,50,13.10
2008,08,03,04,51,13.10
2008,08,03,04,52,13.00
2008,08,03,04,53,13.00
2008,08,03,04,54,13.00
2008,08,03,04,55,12.90
2008,08,03,04,56,12.90
2008,08,03,04,57,12.90
2008,08,03,04,58,12.90
2008,08,03,04,59,12.90
2008,08,03,05,00,12.90
2008,08,03,05,01,12.90
2008,08,03,05,02,12.90
2008,08,03,05,03,12.90
2008,08,03,05,04,12.80
2008,08,03,05,05,12.80
2008,08,03,05,06,12.80
2008,08,03,05,07,12.80
2008,08,03,05,08,12.80
2008,08,03,05,09,12.80
2008,08,03,05,10,12.80
2008,08,03,05,11,12.90
2008,08,03,05,12,12.90
2008,08,03,05,13,12.90
2008,08,03,05,14,13.00
2008,08,03,05,15,13.00
2008,08,03,05,16,13.10
2008,08,03,05,17,13.10
2008,08,03,05,18,13.20
2008,08,03,05,19,13.20
2008,08,03,05,20,13.20
2008,08,03,05,21,13.20
2008,08,03,05,22,13.10
2008,08,03,05,23,13.10
2008,08,03,05,24,13.10
2008,08,03,05,25,13.00
2008,08,03,05,26,13.00
2008,08,03,05,27,13.00
2008,08,03,05,28,12.90
2008,08,03,05,29,12.90
2008,08,03,05,30,12.90
2008,08,03,05,31,12.90
2008,08,03,05,32,12.90
2008,08,03,05,33,12.80
2008,08,03,05,34,12.80
2008,08,03,05,35,12.80
2008,08,03,05,36,12.70
2008,08,03,05,37,12.70
2008,08,03,05,38,12.70
2008,08,03,05,39,12.60
2008,08,03,05,40,12.60
2008,08,03,05,41,12.60
2008,08,03,05,42,12.60
2008,08,03,05,43,12.60
2008,08,03,05,44,12.60
2008,08,03,05,45,12.60
2008,08,03,05,46,12.60
2008,08,03,05,47,12.60
2008,08,03,05,48,12.60
2008,08,03,05,49,12.60
2008,08,03,05,50,12.60
2008,08,03,05,51,12.60
2008,08,03,05,52,12.60
2008,08,03,05,53,12.60
2008,08,03,05,54,12.60
2008,08,03,05,55,12.60
2008,08,03,05,56,12.60
2008,08,03,05,57,12.60
2008,08,03,05,58,12.60
2008,08,03,05,59,12.60
2008,08,03,06,00,12.60
2008,08,03,06,01,12.50
2008,08,03,06,02,12.50
2008,08,03,06,03,12.50
2008,08,03,06,04,12.50
2008,08,03,06,05,12.60
2008,08,03,06,06,12.60
2008,08,03,06,07,12.60
2008,08,03,06,08,12.60
2008,08,03,06,09,12.60
2008,08,03,06,10,12.60
2008,08,03,06,11,12.60
2008,08,03,06,12,12.50
2008,08,03,06,13,12.50
2008,08,03,06,14,12.50
2008,08,03,06,15,12.60
2008,08,03,06,16,12.60
2008,08,03,06,17,12.60
2008,08,03,06,18,12.60
2008,08,03,06,19,12.60
2008,08,03,06,20,12.60
2008,08,03,06,21,12.70
2008,08,03,06,22,12.70
2008,08,03,06,23,12.80
2008,08,03,06,24,12.80
2008,08,03,06,25,12.80
2008,08,03,06,26,12.80
2008,08,03,06,27,12.80
2008,08,03,06,28,12.80
2008,08,03,06,29,12.90
2008,08,03,06,30,12.90
2008,08,03,06,31,12.90
2008,08,03,06,32,13.00
2008,08,03,06,33,13.00
2008,08,03,06,34,13.00
2008,08,03,06,35,13.10
2008,08,03,06,36,13.10
2008,08,03,06,37,13.20
2008,08,03,06,38,13.20
2008,08,03,06,39,13.20
2008,08,03,06,40,13.20
2008,08,03,06,41,13.30
2008,08,03,06,42,13.30
2008,08,03,06,43,13.30
2008,08,03,06,44,13.30
2008,08,03,06,45,13.30
2008,08,03,06,46,13.30
2008,08,03,06,47,13.30
2008,08,03,06,48,13.30
2008,08,03,06,49,13.30
2008,08,03,06,50,13.30
2008,08,03,06,51,13.40
2008,08,03,06,52,13.40
2008,08,03,06,53,13.40
2008,08,03,06,54,13.40
2008,08,03,06,55,13.40
2008,08,03,06,56,13.50
2008,08,03,06,57,13.50
2008,08,03,06,58,13.50
2008,08,03,06,59,13.50
2008,08,03,07,00,13.60
2008,08,03,07,01,13.60
2008,08,03,07,02,13.60
2008,08,03,07,03,13.60
2008,08,03,07,04,13.60
2008,08,03,07,05,13.70
2008,08,03,07,06,13.70
2008,08,03,07,07,13.70
2008,08,03,07,08,13.70
2008,08,03,07,09,13.70
2008,08,03,07,10,13.70
2008,08,03,07,11,13.80
2008,08,03,07,12,13.80
2008,08,03,07,13,13.80
2008,08,03,07,14,13.90
2008,08,03,07,15,13.90
2008,08,03,07,16,13.90
2008,08,03,07,17,13.90
2008,08,03,07,18,13.90
2008,08,03,07,19,14.00
2008,08,03,07,20,14.00
2008,08,03,07,21,14.00
2008,08,03,07,22,14.00
2008,08,03,07,23,14.00
2008,08,03,07,24,14.10
2008,08,03,07,25,14.10
2008,08,03,07,26,14.10
2008,08,03,07,27,14.10
2008,08,03,07,28,14.10
2008,08,03,07,29,14.10
2008,08,03,07,30,14.20
2008,08,03,07,31,14.20
2008,08,03,07,32,14.20
2008,08,03,07,33,14.20
2008,08,03,07,34,14.20
2008,08,03,07,35,14.20
2008,08,03,07,36,14.20
2008,08,03,07,37,14.20
2008,08,03,07,38,14.20
2008,08,03,07,39,14.20
2008,08,03,07,40,14.20
2008,08,03,07,41,14.20
2008,08,03,07,42,14.20
2008,08,03,07,43,14.20
2008,08,03,07,44,14.20
2008,08,03,07,45,14.30
2008,08,03,07,46,14.30
2008,08,03,07,47,14.30
2008,08,03,07,48,14.30
2008,08,03,07,49,14.40
2008,08,03,07,50,14.40
2008,08,03,07,51,14.40
2008,08,03,07,52,14.40
2008,08,03,07,53,14.40
2008,08,03,07,54,14.50
2008,08,03,07,55,14.50
2008,08,03,07,56,14.50
2008,08,03,07,57,14.50
2008,08,03,07,58,14.50
2008,08,03,07,59,14.50
2008,08,03,08,00,14.50
2008,08,03,08,01,14.50
2008,08,03,08,02,14.60
2008,08,03,08,03,14.60
2008,08,03,08,04,14.60
2008,08,03,08,05,14.60
2008,08,03,08,06,14.70
2008,08,03,08,07,14.70
2008,08,03,08,08,14.80
2008,08,03,08,09,14.80
2008,08,03,08,10,14.80
2008,08,03,08,11,14.80
2008,08,03,08,12,14.80
2008,08,03,08,13,14.70
2008,08,03,08,14,14.70
2008,08,03,08,15,14.70
2008,08,03,08,16,14.70
2008,08,03,08,17,14.70
2008,08,03,08,18,14.70
2008,08,03,08,19,14.70
2008,08,03,08,20,14.70
2008,08,03,08,21,14.70
2008,08,03,08,22,14.70
2008,08,03,08,23,14.80
2008,08,03,08,24,14.80
2008,08,03,08,25,14.80
2008,08,03,08,26,14.80
2008,08,03,08,27,14.80
2008,08,03,08,28,14.80
2008,08,03,08,29,14.80
2008,08,03,08,30,14.80
2008,08,03,08,31,14.80
2008,08,03,08,32,14.80
2008,08,03,08,33,14.80
2008,08,03,08,34,14.80
2008,08,03,08,35,14.80
2008,08,03,08,36,14.80
2008,08,03,08,37,14.90
2008,08,03,08,38,14.90
2008,08,03,08,39,15.00
2008,08,03,08,40,15.00
2008,08,03,08,41,15.10
2008,08,03,08,42,15.10
2008,08,03,08,43,15.10
2008,08,03,08,44,15.10
2008,08,03,08,45,15.20
2008,08,03,08,46,15.20
2008,08,03,08,47,15.20
2008,08,03,08,48,15.20
2008,08,03,08,49,15.20
2008,08,03,08,50,15.20
2008,08,03,08,51,15.10
2008,08,03,08,52,15.10
2008,08,03,08,53,15.10
2008,08,03,08,54,15.10
2008,08,03,08,55,15.20
2008,08,03,08,56,15.20
2008,08,03,08,57,15.20
2008,08,03,08,58,15.20
2008,08,03,08,59,15.30
2008,08,03,09,00,15.30
2008,08,03,09,01,15.30
2008,08,03,09,02,15.30
2008,08,03,09,03,15.40
2008,08,03,09,04,15.40
2008,08,03,09,05,15.50
2008,08,03,09,06,15.50
2008,08,03,09,07,15.50
2008,08,03,09,08,15.50
2008,08,03,09,09,15.50
2008,08,03,09,10,15.50
2008,08,03,09,11,15.50
2008,08,03,09,12,15.50
2008,08,03,09,13,15.50
2008,08,03,09,14,15.50
2008,08,03,09,15,15.50
2008,08,03,09,16,15.50
2008,08,03,09,17,15.50
2008,08,03,09,18,15.50
2008,08,03,09,19,15.50
2008,08,03,09,20,15.50
2008,08,03,09,21,15.50
2008,08,03,09,22,15.60
2008,08,03,09,23,15.60
2008,08,03,09,24,15.60
2008,08,03,09,25,15.60
2008,08,03,09,26,15.60
2008,08,03,09,27,15.60
2008,08,03,09,28,15.60
2008,08,03,09,29,15.60
2008,08,03,09,30,15.60
2008,08,03,09,31,15.60
2008,08,03,09,32,15.60
2008,08,03,09,33,15.60
2008,08,03,09,34,15.60
2008,08,03,09,35,15.60
2008,08,03,09,36,15.60
2008,08,03,09,37,15.60
2008,08,03,09,38,15.60
2008,08,03,09,39,15.70
2008,08,03,09,40,15.80
2008,08,03,09,41,15.80
2008,08,03,09,42,15.80
2008,08,03,09,43,15.80
2008,08,03,09,44,15.80
2008,08,03,09,45,15.80
2008,08,03,09,46,15.90
2008,08,03,09,47,15.90
2008,08,03,09,48,15.90
2008,08,03,09,49,15.90
2008,08,03,09,50,16.10
2008,08,03,09,51,16.00
2008,08,03,09,52,15.90
2008,08,03,09,53,16.10
2008,08,03,09,54,16.10
2008,08,03,09,55,16.10
2008,08,03,09,56,16.10
2008,08,03,09,57,16.10
2008,08,03,09,58,16.10
2008,08,03,09,59,16.10
2008,08,03,10,00,16.10
2008,08,03,10,01,16.10
2008,08,03,10,02,16.10
2008,08,03,10,03,16.10
2008,08,03,10,04,16.20
2008,08,03,10,05,16.30
2008,08,03,10,06,16.30
2008,08,03,10,07,16.40
2008,08,03,10,08,16.40
2008,08,03,10,09,16.40
2008,08,03,10,10,16.40
2008,08,03,10,11,16.40
2008,08,03,10,12,16.40
2008,08,03,10,13,16.40
2008,08,03,10,14,16.40
2008,08,03,10,15,16.50
2008,08,03,10,16,16.60
2008,08,03,10,17,16.60
2008,08,03,10,18,16.70
2008,08,03,10,19,16.70
2008,08,03,10,20,16.70
2008,08,03,10,21,16.70
2008,08,03,10,22,16.70
2008,08,03,10,23,16.70
2008,08,03,10,24,16.70
2008,08,03,10,25,16.70
2008,08,03,10,26,16.70
2008,08,03,10,27,16.70
2008,08,03,10,28,16.70
2008,08,03,10,29,16.70
2008,08,03,10,30,16.60
2008,08,03,10,31,16.60
2008,08,03,10,32,16.60
2008,08,03,10,33,16.70
2008,08,03,10,34,16.70
2008,08,03,10,35,16.80
2008,08,03,10,36,16.80
2008,08,03,10,37,16.80
2008,08,03,10,38,16.80
2008,08,03,10,39,16.90
2008,08,03,10,40,16.90
2008,08,03,10,41,16.90
2008,08,03,10,42,16.90
2008,08,03,10,43,16.90
2008,08,03,10,44,17.00
2008,08,03,10,45,17.00
2008,08,03,10,46,17.00
2008,08,03,10,47,17.00
2008,08,03,10,48,16.90
2008,08,03,10,49,16.90
2008,08,03,10,50,16.90
2008,08,03,10,51,16.90
2008,08,03,10,52,17.00
2008,08,03,10,53,16.90
2008,08,03,10,54,16.90
2008,08,03,10,55,16.90
2008,08,03,10,56,16.90
2008,08,03,10,57,16.90
2008,08,03,10,58,16.90
2008,08,03,10,59,16.90
2008,08,03,11,00,16.90
2008,08,03,11,01,16.90
2008,08,03,11,02,16.90
2008,08,03,11,03,17.00
2008,08,03,11,04,17.10
2008,08,03,11,05,17.20
2008,08,03,11,06,17.30
2008,08,03,11,07,17.30
2008,08,03,11,08,17.40
2008,08,03,11,09,17.30
2008,08,03,11,10,17.30
2008,08,03,11,11,17.30
2008,08,03,11,12,17.40
2008,08,03,11,13,17.40
2008,08,03,11,14,17.50
2008,08,03,11,15,17.50
2008,08,03,11,16,17.60
2008,08,03,11,17,17.60
2008,08,03,11,18,17.60
2008,08,03,11,19,17.60
2008,08,03,11,20,17.60
2008,08,03,11,21,17.60
2008,08,03,11,22,17.60
2008,08,03,11,23,17.60
2008,08,03,11,24,17.60
2008,08,03,11,25,17.60
2008,08,03,11,26,17.60
2008,08,03,11,27,17.70
2008,08,03,11,28,17.70
2008,08,03,11,29,17.80
2008,08,03,11,30,17.80
2008,08,03,11,31,17.90
2008,08,03,11,32,17.90
2008,08,03,11,33,17.90
2008,08,03,11,34,17.90
2008,08,03,11,35,17.80
2008,08,03,11,36,17.80
2008,08,03,11,37,17.70
2008,08,03,11,38,17.70
2008,08,03,11,39,17.70
2008,08,03,11,40,17.70
2008,08,03,11,41,17.70
2008,08,03,11,42,17.70
2008,08,03,11,43,17.80
2008,08,03,11,44,17.80
2008,08,03,11,45,17.90
2008,08,03,11,46,17.90
2008,08,03,11,47,18.00
2008,08,03,11,48,18.10
2008,08,03,11,49,18.20
2008,08,03,11,50,18.20
2008,08,03,11,51,18.20
2008,08,03,11,52,18.30
2008,08,03,11,53,18.40
2008,08,03,11,54,18.50
2008,08,03,11,55,18.50
2008,08,03,11,56,18.50
2008,08,03,11,57,18.50
2008,08,03,11,58,18.50
2008,08,03,11,59,18.50
2008,08,03,12,00,18.50
2008,08,03,12,01,18.50
2008,08,03,12,02,18.50
2008,08,03,12,03,18.50
2008,08,03,12,04,18.40
2008,08,03,12,05,18.40
2008,08,03,12,06,18.40
2008,08,03,12,07,18.40
2008,08,03,12,08,18.40
2008,08,03,12,09,18.40
2008,08,03,12,10,18.40
2008,08,03,12,11,18.50
2008,08,03,12,12,18.50
2008,08,03,12,13,18.50
2008,08,03,12,14,18.60
2008,08,03,12,15,18.70
2008,08,03,12,16,18.70
2008,08,03,12,17,18.70
2008,08,03,12,18,18.80
2008,08,03,12,19,18.80
2008,08,03,12,20,18.80
2008,08,03,12,21,18.80
2008,08,03,12,22,18.80
2008,08,03,12,23,18.70
2008,08,03,12,24,18.70
2008,08,03,12,25,18.70
2008,08,03,12,26,18.70
2008,08,03,12,27,18.80
2008,08,03,12,28,18.80
2008,08,03,12,29,18.90
2008,08,03,12,30,18.90
2008,08,03,12,31,19.00
2008,08,03,12,32,19.10
2008,08,03,12,33,19.10
2008,08,03,12,34,19.10
2008,08,03,12,35,19.10
2008,08,03,12,36,19.20
2008,08,03,12,37,19.20
2008,08,03,12,38,19.30
2008,08,03,12,39,19.30
2008,08,03,12,40,19.40
2008,08,03,12,41,19.40
2008,08,03,12,42,19.50
2008,08,03,12,43,19.50
2008,08,03,12,44,19.50
2008,08,03,12,45,19.50
2008,08,03,12,46,19.50
2008,08,03,12,47,19.50
2008,08,03,12,48,19.50
2008,08,03,12,49,19.60
2008,08,03,12,50,19.70
2008,08,03,12,51,19.70
2008,08,03,12,52,19.80
2008,08,03,12,53,19.80
2008,08,03,12,54,19.90
2008,08,03,12,55,19.90
2008,08,03,12,56,19.90
2008,08,03,12,57,19.90
2008,08,03,12,58,20.00
2008,08,03,12,59,20.10
2008,08,03,13,00,20.20
2008,08,03,13,01,20.20
2008,08,03,13,02,20.20
2008,08,03,13,03,20.20
2008,08,03,13,04,20.20
2008,08,03,13,05,20.20
2008,08,03,13,06,20.20
2008,08,03,13,07,20.20
2008,08,03,13,08,20.30
2008,08,03,13,09,20.30
2008,08,03,13,10,20.50
2008,08,03,13,11,20.50
2008,08,03,13,12,20.60
2008,08,03,13,13,20.50
2008,08,03,13,14,20.50
2008,08,03,13,15,20.50
2008,08,03,13,16,20.40
2008,08,03,13,17,20.30
2008,08,03,13,18,20.20
2008,08,03,13,19,20.20
2008,08,03,13,20,20.20
2008,08,03,13,21,20.20
2008,08,03,13,22,20.20
2008,08,03,13,23,20.20
2008,08,03,13,24,20.30
2008,08,03,13,25,20.40
2008,08,03,13,26,20.40
2008,08,03,13,27,20.50
2008,08,03,13,28,20.50
2008,08,03,13,29,20.50
2008,08,03,13,30,20.60
2008,08,03,13,31,20.60
2008,08,03,13,32,20.60
2008,08,03,13,33,20.50
2008,08,03,13,34,20.50
2008,08,03,13,35,20.50
2008,08,03,13,36,20.40
2008,08,03,13,37,20.40
2008,08,03,13,38,20.30
2008,08,03,13,39,20.30
2008,08,03,13,40,20.30
2008,08,03,13,41,20.20
2008,08,03,13,42,20.20
2008,08,03,13,43,20.10
2008,08,03,13,44,19.90
2008,08,03,13,45,19.90
2008,08,03,13,46,19.90
2008,08,03,13,47,19.90
2008,08,03,13,48,19.90
2008,08,03,13,49,20.00
2008,08,03,13,50,20.10
2008,08,03,13,51,20.10
2008,08,03,13,52,20.20
2008,08,03,13,53,20.20
2008,08,03,13,54,20.20
2008,08,03,13,55,20.10
2008,08,03,13,56,20.00
2008,08,03,13,57,19.90
2008,08,03,13,58,19.90
2008,08,03,13,59,20.00
2008,08,03,14,00,20.10
2008,08,03,14,01,20.10
2008,08,03,14,02,20.20
2008,08,03,14,03,20.20
2008,08,03,14,04,20.20
2008,08,03,14,05,20.20
2008,08,03,14,06,20.20
2008,08,03,14,07,20.30
2008,08,03,14,08,20.30
2008,08,03,14,09,20.40
2008,08,03,14,10,20.40
2008,08,03,14,11,20.40
2008,08,03,14,12,20.40
2008,08,03,14,13,20.30
2008,08,03,14,14,20.30
2008,08,03,14,15,20.30
2008,08,03,14,16,20.30
2008,08,03,14,17,20.40
2008,08,03,14,18,20.50
2008,08,03,14,19,20.60
2008,08,03,14,20,20.60
2008,08,03,14,21,20.50
2008,08,03,14,22,20.40
2008,08,03,14,23,20.50
2008,08,03,14,24,20.50
2008,08,03,14,25,20.50
2008,08,03,14,26,20.50
2008,08,03,14,27,20.40
2008,08,03,14,28,20.50
2008,08,03,14,29,20.50
2008,08,03,14,30,20.50
2008,08,03,14,31,20.50
2008,08,03,14,32,20.70
2008,08,03,14,33,20.70
2008,08,03,14,34,20.70
2008,08,03,14,35,20.70
2008,08,03,14,36,20.70
2008,08,03,14,37,20.80
2008,08,03,14,38,20.80
2008,08,03,14,39,20.80
2008,08,03,14,40,20.70
2008,08,03,14,41,20.70
2008,08,03,14,42,20.70
2008,08,03,14,43,20.70
2008,08,03,14,44,20.80
2008,08,03,14,45,20.90
2008,08,03,14,46,21.00
2008,08,03,14,47,21.00
2008,08,03,14,48,21.10
2008,08,03,14,49,21.20
2008,08,03,14,50,21.20
2008,08,03,14,51,21.20
2008,08,03,14,52,21.20
2008,08,03,14,53,21.20
2008,08,03,14,54,21.20
2008,08,03,14,55,21.30
2008,08,03,14,56,21.30
2008,08,03,14,57,21.30
2008,08,03,14,58,21.30
2008,08,03,14,59,21.30
2008,08,03,15,00,21.30
2008,08,03,15,01,21.30
2008,08,03,15,02,21.30
2008,08,03,15,03,21.30
2008,08,03,15,04,21.30
2008,08,03,15,05,21.30
2008,08,03,15,06,21.20
2008,08,03,15,07,21.20
2008,08,03,15,08,21.20
2008,08,03,15,09,21.20
2008,08,03,15,10,21.20
2008,08,03,15,11,21.30
2008,08,03,15,12,21.40
2008,08,03,15,13,21.50
2008,08,03,15,14,21.60
2008,08,03,15,15,21.70
2008,08,03,15,16,21.70
2008,08,03,15,17,21.60
2008,08,03,15,18,21.70
2008,08,03,15,19,21.70
2008,08,03,15,20,21.70
2008,08,03,15,21,21.70
2008,08,03,15,22,21.70
2008,08,03,15,23,21.70
2008,08,03,15,24,21.80
2008,08,03,15,25,21.90
2008,08,03,15,26,21.90
2008,08,03,15,27,21.80
2008,08,03,15,28,21.80
2008,08,03,15,29,21.80
2008,08,03,15,30,21.80
2008,08,03,15,31,21.80
2008,08,03,15,32,21.80
2008,08,03,15,33,21.80
2008,08,03,15,34,21.80
2008,08,03,15,35,21.70
2008,08,03,15,36,21.80
2008,08,03,15,37,21.90
2008,08,03,15,38,21.90
2008,08,03,15,39,21.90
2008,08,03,15,40,21.90
2008,08,03,15,41,21.90
2008,08,03,15,42,21.90
2008,08,03,15,43,22.00
2008,08,03,15,44,22.00
2008,08,03,15,45,22.10
2008,08,03,15,46,22.10
2008,08,03,15,47,22.10
2008,08,03,15,48,22.10
2008,08,03,15,49,22.20
2008,08,03,15,50,22.20
2008,08,03,15,51,22.20
2008,08,03,15,52,22.20
2008,08,03,15,53,22.20
2008,08,03,15,54,22.30
2008,08,03,15,55,22.30
2008,08,03,15,56,22.30
2008,08,03,15,57,22.40
2008,08,03,15,58,22.50
2008,08,03,15,59,22.60
2008,08,03,16,00,22.70
2008,08,03,16,01,22.70
2008,08,03,16,02,22.60
2008,08,03,16,03,22.50
2008,08,03,16,04,22.40
2008,08,03,16,05,22.40
2008,08,03,16,06,22.40
2008,08,03,16,07,22.40
2008,08,03,16,08,22.40
2008,08,03,16,09,22.40
2008,08,03,16,10,22.50
2008,08,03,16,11,22.50
2008,08,03,16,12,22.60
2008,08,03,16,13,22.60
2008,08,03,16,14,22.70
2008,08,03,16,15,22.80
2008,08,03,16,16,22.80
2008,08,03,16,17,22.90
2008,08,03,16,18,22.90
2008,08,03,16,19,22.90
2008,08,03,16,20,22.90
2008,08,03,16,21,22.90
2008,08,03,16,22,22.90
2008,08,03,16,23,22.90
2008,08,03,16,24,22.90
2008,08,03,16,25,22.90
2008,08,03,16,26,22.90
2008,08,03,16,27,22.90
2008,08,03,16,28,22.90
2008,08,03,16,29,22.90
2008,08,03,16,30,23.00
2008,08,03,16,31,23.10
2008,08,03,16,32,23.10
2008,08,03,16,33,23.10
2008,08,03,16,34,23.10
2008,08,03,16,35,23.10
2008,08,03,16,36,23.10
2008,08,03,16,37,23.20
2008,08,03,16,38,23.20
2008,08,03,16,39,23.20
2008,08,03,16,40,23.30
2008,08,03,16,41,23.30
2008,08,03,16,42,23.30
2008,08,03,16,43,23.40
2008,08,03,16,44,23.40
2008,08,03,16,45,23.40
2008,08,03,16,46,23.50
2008,08,03,16,47,23.60
2008,08,03,16,48,23.60
2008,08,03,16,49,23.60
2008,08,03,16,50,23.60
2008,08,03,16,51,23.60
2008,08,03,16,52,23.50
2008,08,03,16,53,23.50
2008,08,03,16,54,23.60
2008,08,03,16,55,23.60
2008,08,03,16,56,23.50
2008,08,03,16,57,23.40
2008,08,03,16,58,23.30
2008,08,03,16,59,23.30
2008,08,03,17,00,23.20
2008,08,03,17,01,23.20
2008,08,03,17,02,23.20
2008,08,03,17,03,23.20
2008,08,03,17,04,23.20
2008,08,03,17,05,23.30
2008,08,03,17,06,23.40
2008,08,03,17,07,23.40
2008,08,03,17,08,23.50
2008,08,03,17,09,23.70
2008,08,03,17,10,23.70
2008,08,03,17,11,23.70
2008,08,03,17,12,23.70
2008,08,03,17,13,23.70
2008,08,03,17,14,23.80
2008,08,03,17,15,23.80
2008,08,03,17,16,23.80
2008,08,03,17,17,23.80
2008,08,03,17,18,23.80
2008,08,03,17,19,23.70